Location: Liscomb Game Sanctuary
(45.1633°N, 62.5575°W)
Time: 05:41:12

Cosmos 1891 Rocket - Pass Details

Date: 22 February 2018
Orbit: 933 x 1019 km, 82.9° (Epoch: 20 March)

Event Time Altitude Azimuth Distance (km) Brightness Sun altitude
Rises 18:43:51 0° 353° (N) 3,697 7.6 -10.6°
Reaches altitude 10° 18:46:26 10° 357° (N) 2,732 6.9 -11.0°
Maximum altitude 18:52:39 65° 79° (E) 1,050 4.4 -12.1°
Drops below altitude 10° 18:58:41 10° 161° (SSE) 2,659 6.6 -13.2°
Sets 19:01:09 0° 164° (SSE) 3,591 7.3 -13.6°
